Theta_e
370 360 360 362 357 353 354 353 363 366 364 366 367 365 369 362 358 362 360 360 358 351
369 367 362 371 366 358 362 358 364 366 366 367 367 368 370 358 362 363 360 358 358 353
362 367 367 368 371 368 367 368 371 366 364 366 370 369 370 364 365 365 357 354 356 354
361 362 364 360 367 368 368 373 370 372 367 367 365 367 369 367 364 362 360 357 354 352
361 363 361 363 361 365 368 374 374 374 370 369 368 369 366 361 359 359 358 356 354 351
358 358 359 361 365 365 371 372 367 372 370 370 368 367 367 365 362 358 358 358 354 351
358 360 358 362 368 365 372 373 373 373 372 371 370 368 364 363 363 362 359 359 356 353
364 367 372 372 372 370 372 372 376 375 373 372 367 362 366 364 364 364 361 359 357 353
368 369 369 373 372 376 373 374 376 374 373 370 362 348 346 360 362 363 362 358 357 355
353 361 372 371 374 373 372 372 372 373 373 372 372 344 341 346 359 361 361 359 355 348
341 354 368 367 370 370 370 371 372 371 372 372 371 343 336 343 359 364 363 361 350 345
360 365 365 368 367 364 362 364 369 370 372 371 371 338 334 341 359 358 346 342 340 339
356 355 351 353 359 369 371 369 364 366 370 359 370 332 328 340 352 342 339 342 338 333
355 356 354 357 362 363 365 370 371 370 370 369 365 353 325 331 351 341 340 335 334 334
Wind_Speed
14 11 11 11 9 10 9 7 7 11 11 13 12 11 8 9 6 5 6 6 4 7
14 14 12 11 11 9 7 7 10 11 11 11 9 10 9 8 8 4 6 6 5 5
17 16 13 11 10 11 8 7 9 11 11 11 11 10 9 8 8 5 6 7 6 5
15 16 15 14 12 11 10 9 8 10 11 11 11 11 10 9 6 10 10 8 7 8
14 14 16 14 15 15 13 11 10 10 12 11 12 11 12 12 11 11 10 11 9 9
15 15 16 16 14 15 13 12 14 13 13 13 13 12 12 12 12 12 12 11 10 9
12 13 14 14 13 14 14 14 14 15 15 15 14 14 14 15 13 13 11 11 11 10
6 9 9 10 11 13 13 14 14 14 14 15 15 14 16 16 15 14 13 11 11 12
9 8 10 10 11 11 13 13 14 15 16 16 15 17 17 16 15 16 14 13 11 10
12 15 10 11 11 12 13 13 15 16 16 17 17 13 18 18 16 14 14 13 10 10
4 25 12 9 11 12 12 13 13 14 16 16 15 14 16 20 20 13 13 12 13 12
9 5 5 7 9 11 8 11 12 11 14 16 15 15 19 17 17 11 14 13 14 15
2 3 3 3 4 6 7 11 12 13 13 14 15 13 16 18 10 12 9 13 16 27
4 4 4 4 4 5 7 7 9 11 11 12 14 12 19 20 15 12 11 10 9 8
Wind_Direction
210 215 218 211 240 217 190 192 169 176 193 219 187 193 194 207 215 188 217 227 257 313
202 218 213 224 204 235 236 187 172 178 202 198 208 199 183 224 189 201 196 214 220 242
204 205 218 200 212 224 215 237 158 187 197 203 202 197 206 192 204 181 215 223 185 231
206 203 205 207 201 209 223 194 219 187 202 204 208 205 197 238 193 197 210 218 206 213
210 209 201 211 202 202 212 201 203 195 206 207 208 208 208 213 228 200 212 217 220 217
203 208 211 203 215 200 203 204 206 205 207 210 210 209 210 217 223 229 214 221 211 220
221 213 221 210 206 218 199 206 206 205 207 210 211 207 213 212 216 220 209 216 211 214
252 241 221 236 211 209 218 205 212 212 215 216 212 211 206 212 204 213 215 203 206 206
312 254 257 237 232 224 214 218 211 216 216 216 222 216 206 205 205 204 208 208 201 201
341 286 238 241 243 232 231 228 222 222 221 221 222 217 197 197 217 213 209 203 187 175
309 262 249 234 237 236 235 230 229 230 227 229 227 203 191 193 211 216 223 183 161 150
204 256 258 238 211 223 241 245 239 237 234 232 233 203 188 184 210 201 166 155 157 162
303 281 276 320 307 271 236 233 235 241 239 231 236 186 178 183 195 180 182 179 184 191
213 251 263 298 293 284 287 266 262 250 242 243 236 196 187 184 184 190 191 195 199 202